Time,TemperatureF,DewpointF,PressureIn,WindDirection,WindDirectionDegrees,WindSpeedMPH,WindSpeedGustMPH,Humidity,HourlyPrecipIn,Conditions,Clouds,dailyrainin,SoftwareType,DateUTC
2013-08-25 00:02:00,-999.0,-99.9,30.23,West,266,0.0,0.0,-999,-99.99,,,-99.99,,2013-08-25 04:02:00,
2013-08-25 00:25:00,64.0,59.0,30.24,ENE,64,0.0,0.0,84,0.00,,,0.01,,2013-08-25 04:25:00,
2013-08-25 00:43:00,64.0,59.0,30.25,NNE,30,0.0,0.0,84,0.00,,,0.01,,2013-08-25 04:43:00,
2013-08-25 00:54:00,63.0,58.0,30.25,NNE,30,0.0,0.0,84,0.00,,,0.01,,2013-08-25 04:54:00,
2013-08-25 01:12:00,63.0,58.0,30.25,North,11,0.0,0.0,85,0.00,,,0.01,,2013-08-25 05:12:00,
2013-08-25 01:23:00,63.0,56.0,30.25,North,11,0.0,0.0,79,0.00,,,0.01,,2013-08-25 05:23:00,
2013-08-25 01:52:00,63.0,58.0,30.25,ENE,68,0.0,0.0,85,0.00,,,0.01,,2013-08-25 05:52:00,
2013-08-25 02:03:00,63.0,58.0,30.25,ENE,68,0.0,0.0,85,0.00,,,0.01,,2013-08-25 06:03:00,
2013-08-25 02:12:00,63.0,58.0,30.25,ENE,68,0.0,0.0,85,0.00,,,0.01,,2013-08-25 06:12:00,
2013-08-25 02:22:00,63.0,58.0,30.25,ENE,68,0.0,0.0,85,0.00,,,0.01,,2013-08-25 06:22:00,
2013-08-25 02:43:00,61.0,56.0,30.24,NNW,342,0.0,0.0,85,0.00,,,0.01,,2013-08-25 06:43:00,
2013-08-25 02:52:00,61.0,57.0,30.24,NNW,342,0.0,0.0,88,0.00,,,0.01,,2013-08-25 06:52:00,
2013-08-25 03:01:00,61.0,57.0,30.24,NNW,342,0.0,0.0,88,0.00,,,0.01,,2013-08-25 07:01:00,
2013-08-25 03:12:00,61.0,57.0,30.24,NNW,342,0.0,0.0,88,0.00,,,0.01,,2013-08-25 07:12:00,
2013-08-25 03:22:00,60.0,56.0,30.25,NNW,342,0.0,0.0,87,0.00,,,0.01,,2013-08-25 07:22:00,
2013-08-25 03:52:00,60.0,56.0,30.26,NW,322,0.0,0.0,86,0.00,,,0.01,,2013-08-25 07:52:00,
2013-08-25 04:12:00,60.0,55.0,30.26,NW,322,0.0,0.0,84,0.00,,,0.01,,2013-08-25 08:12:00,
2013-08-25 04:21:00,60.0,55.0,30.26,NW,322,0.0,0.0,84,0.00,,,0.01,,2013-08-25 08:21:00,
2013-08-25 04:52:00,59.0,54.0,30.26,NW,322,0.0,0.0,85,0.00,,,0.01,,2013-08-25 08:52:00,
2013-08-25 05:11:00,59.0,54.0,30.26,NW,322,0.0,0.0,85,0.00,,,0.01,,2013-08-25 09:11:00,
2013-08-25 05:22:00,59.0,54.0,30.26,NW,322,0.0,0.0,85,0.00,,,0.01,,2013-08-25 09:22:00,
2013-08-25 05:34:00,59.0,54.0,30.26,NW,322,0.0,0.0,85,0.00,,,0.01,,2013-08-25 09:34:00,
2013-08-25 05:55:00,58.0,54.0,30.27,NW,322,0.0,0.0,87,0.00,,,0.01,,2013-08-25 09:55:00,
2013-08-25 06:12:00,58.0,54.0,30.27,NW,322,0.0,0.0,88,0.00,,,0.01,,2013-08-25 10:12:00,
2013-08-25 06:23:00,58.0,54.0,30.27,NW,322,0.0,0.0,88,0.00,,,0.01,,2013-08-25 10:23:00,
2013-08-25 06:53:00,58.0,54.0,30.28,NW,322,0.0,0.0,88,0.00,,,0.01,,2013-08-25 10:53:00,
2013-08-25 07:12:00,58.0,54.0,30.29,NW,322,0.0,0.0,88,0.00,,,0.01,,2013-08-25 11:12:00,
2013-08-25 07:22:00,58.0,54.0,30.29,NW,322,0.0,0.0,87,0.00,,,0.01,,2013-08-25 11:22:00,
2013-08-25 07:52:00,57.0,53.0,30.30,NW,322,0.0,0.0,88,0.00,,,0.01,,2013-08-25 11:52:00,
2013-08-25 08:02:00,57.0,53.0,30.30,NW,322,0.0,0.0,88,0.00,,,0.01,,2013-08-25 12:02:00,
2013-08-25 08:12:00,57.0,53.0,30.30,NW,322,0.0,0.0,88,0.00,,,0.01,,2013-08-25 12:12:00,
2013-08-25 08:22:00,57.0,53.0,30.30,NW,322,0.0,0.0,88,0.00,,,0.01,,2013-08-25 12:22:00,
2013-08-25 08:43:00,58.0,55.0,30.32,NW,322,0.0,0.0,89,0.00,,,0.01,,2013-08-25 12:43:00,
2013-08-25 08:52:00,58.0,55.0,30.32,NW,322,0.0,0.0,90,0.00,,,0.01,,2013-08-25 12:52:00,
2013-08-25 09:12:00,58.0,55.0,30.32,NW,322,0.0,0.0,90,0.00,,,0.01,,2013-08-25 13:12:00,
2013-08-25 09:22:00,58.0,55.0,30.32,NW,322,0.0,0.0,90,0.00,,,0.01,,2013-08-25 13:22:00,
2013-08-25 09:52:00,61.0,56.0,30.33,West,267,0.0,0.0,84,0.00,,,0.01,,2013-08-25 13:52:00,
2013-08-25 10:11:00,63.0,58.0,30.34,SW,236,0.0,0.0,84,0.00,,,0.01,,2013-08-25 14:11:00,
2013-08-25 10:26:00,63.0,58.0,30.34,SW,236,0.0,0.0,84,0.00,,,0.01,,2013-08-25 14:26:00,
2013-08-25 10:52:00,65.0,56.0,30.34,South,172,0.0,0.0,74,0.00,,,0.01,,2013-08-25 14:52:00,
2013-08-25 11:01:00,65.0,56.0,30.34,South,172,0.0,0.0,74,0.00,,,0.01,,2013-08-25 15:01:00,
2013-08-25 11:11:00,65.0,56.0,30.34,South,172,0.0,0.0,74,0.00,,,0.01,,2013-08-25 15:11:00,
2013-08-25 11:23:00,65.0,56.0,30.34,South,172,0.0,0.0,74,0.00,,,0.01,,2013-08-25 15:23:00,
2013-08-25 11:44:00,68.0,58.0,30.32,South,182,0.0,0.0,71,0.00,,,0.01,,2013-08-25 15:44:00,
2013-08-25 11:55:00,69.0,58.0,30.32,SSW,193,0.0,0.0,68,0.00,,,0.01,,2013-08-25 15:55:00,
2013-08-25 12:24:00,70.0,61.0,30.32,ESE,117,0.0,0.0,72,0.00,,,0.01,,2013-08-25 16:24:00,
2013-08-25 12:33:00,70.0,61.0,30.32,ESE,117,0.0,0.0,72,0.00,,,0.01,,2013-08-25 16:33:00,
2013-08-25 12:54:00,71.0,63.0,30.30,SSW,194,0.0,0.0,76,0.00,,,0.01,,2013-08-25 16:54:00,
2013-08-25 13:12:00,71.0,60.0,30.29,SE,132,0.0,0.0,68,0.00,,,0.01,,2013-08-25 17:12:00,
2013-08-25 13:23:00,71.0,60.0,30.29,SE,132,0.0,0.0,68,0.00,,,0.01,,2013-08-25 17:23:00,
2013-08-25 13:53:00,73.0,61.0,30.28,SSW,195,0.0,0.0,67,0.00,,,0.01,,2013-08-25 17:53:00,
2013-08-25 14:12:00,73.0,61.0,30.28,SSW,195,0.0,0.0,66,0.00,,,0.01,,2013-08-25 18:12:00,
2013-08-25 14:22:00,74.0,61.0,30.26,SSW,193,0.0,0.0,63,0.00,,,0.01,,2013-08-25 18:22:00,
2013-08-25 14:43:00,75.0,63.0,30.25,SSW,213,0.0,0.0,67,0.00,,,0.01,,2013-08-25 18:43:00,
2013-08-25 14:52:00,74.0,62.0,30.25,SSE,166,0.0,0.0,66,0.00,,,0.01,,2013-08-25 18:52:00,
2013-08-25 15:02:00,74.0,62.0,30.25,SSE,166,0.0,0.0,66,0.00,,,0.01,,2013-08-25 19:02:00,
2013-08-25 15:12:00,74.0,62.0,30.25,SSE,166,0.0,0.0,66,0.00,,,0.01,,2013-08-25 19:12:00,
2013-08-25 15:22:00,74.0,63.0,30.23,SW,229,0.0,0.0,68,0.00,,,0.01,,2013-08-25 19:22:00,
2013-08-25 15:42:00,74.0,63.0,30.23,SSE,160,0.0,0.0,68,0.00,,,0.01,,2013-08-25 19:42:00,
2013-08-25 15:53:00,74.0,63.0,30.23,SSE,160,0.0,0.0,68,0.00,,,0.01,,2013-08-25 19:53:00,
2013-08-25 16:13:00,74.0,63.0,30.23,SE,137,0.0,0.0,68,0.00,,,0.01,,2013-08-25 20:13:00,
2013-08-25 16:23:00,72.0,64.0,30.22,WSW,253,0.0,0.0,75,0.00,,,0.01,,2013-08-25 20:23:00,
2013-08-25 16:43:00,73.0,63.0,30.22,SW,225,0.0,0.0,72,0.00,,,0.01,,2013-08-25 20:43:00,
2013-08-25 16:53:00,73.0,63.0,30.22,SW,225,0.0,0.0,72,0.00,,,0.01,,2013-08-25 20:53:00,
2013-08-25 18:24:00,70.0,62.0,30.21,ESE,113,0.0,0.0,76,0.00,,,0.00,,2013-08-25 22:24:00,
2013-08-25 18:53:00,70.0,64.0,30.22,SSW,200,0.0,0.0,81,0.00,,,0.00,,2013-08-25 22:53:00,
2013-08-25 19:12:00,69.0,63.0,30.22,SSE,164,0.0,0.0,81,0.00,,,0.00,,2013-08-25 23:12:00,
2013-08-25 19:23:00,69.0,63.0,30.22,West,266,0.0,0.0,81,0.00,,,0.00,,2013-08-25 23:23:00,
2013-08-25 19:53:00,68.0,63.0,30.22,West,274,0.0,0.0,84,0.00,,,0.00,,2013-08-25 23:53:00,
2013-08-25 20:11:00,67.0,62.0,30.23,WNW,288,0.0,0.0,84,0.00,,,0.00,,2013-08-26 00:11:00,
2013-08-25 20:22:00,67.0,61.0,30.24,SSW,201,0.0,0.0,82,0.00,,,0.00,,2013-08-26 00:22:00,
2013-08-25 20:32:00,67.0,61.0,30.24,SSW,201,0.0,0.0,82,0.00,,,0.00,,2013-08-26 00:32:00,
2013-08-25 20:42:00,67.0,61.0,30.24,SSW,201,0.0,0.0,82,0.00,,,0.00,,2013-08-26 00:42:00,
2013-08-25 20:52:00,67.0,61.0,30.24,SSW,201,0.0,0.0,82,0.00,,,0.00,,2013-08-26 00:52:00,
2013-08-25 21:11:00,67.0,62.0,30.25,West,266,0.0,0.0,83,0.00,,,0.00,,2013-08-26 01:11:00,
2013-08-25 21:22:00,66.0,61.0,30.25,West,266,0.0,0.0,84,0.00,,,0.00,,2013-08-26 01:22:00,
2013-08-25 21:42:00,66.0,61.0,30.26,WSW,248,0.0,0.0,83,0.00,,,0.00,,2013-08-26 01:42:00,
2013-08-25 21:52:00,66.0,61.0,30.26,SSW,200,0.0,0.0,83,0.00,,,0.00,,2013-08-26 01:52:00,
2013-08-25 22:22:00,65.0,60.0,30.27,WNW,288,0.0,0.0,84,0.00,,,0.00,,2013-08-26 02:22:00,
2013-08-25 22:32:00,65.0,60.0,30.27,WNW,288,0.0,0.0,84,0.00,,,0.00,,2013-08-26 02:32:00,
2013-08-25 22:42:00,65.0,60.0,30.27,WNW,288,0.0,0.0,84,0.00,,,0.00,,2013-08-26 02:42:00,
2013-08-25 22:52:00,65.0,60.0,30.28,WNW,288,0.0,0.0,85,0.00,,,0.00,,2013-08-26 02:52:00,
2013-08-25 23:02:00,65.0,60.0,30.28,WNW,288,0.0,0.0,85,0.00,,,0.00,,2013-08-26 03:02:00,
2013-08-25 23:11:00,65.0,60.0,30.28,WNW,288,0.0,0.0,85,0.00,,,0.00,,2013-08-26 03:11:00,
2013-08-25 23:22:00,64.0,59.0,30.29,WNW,288,0.0,0.0,85,0.00,,,0.00,,2013-08-26 03:22:00,
2013-08-25 23:44:00,64.0,60.0,30.29,WNW,288,0.0,0.0,86,0.00,,,0.00,,2013-08-26 03:44:00,
2013-08-25 23:56:00,64.0,60.0,30.29,WNW,288,0.0,0.0,86,0.00,,,0.00,,2013-08-26 03:56:00,